Weather History for Naples, FL

Change the Weather History Date:

Monday, September 3, 2012

  Actual Average Record
Temperature  
Mean Temperature 82 °F 83 °F  
Max Temperature 90 °F 90 °F 95 °F (1961)
Min Temperature 74 °F 76 °F 68 °F (1980)
Degree Days  
Heating Degree Days 0 0  
Month to date heating degree days 0 0  
Since 1 July heating degree days 0 0  
Cooling Degree Days 17 18  
Month to date cooling degree days 56 54  
Year to date cooling degree days 2951 2711  
Growing Degree Days 30 (Base 50)    
Moisture  
Dew Point 72 °F    
Average Humidity 76    
Maximum Humidity 93    
Minimum Humidity 59    
Precipitation  
Precipitation 0.00 in 0.24 in 2.82 in (1950)
Month to date precipitation 0.00 0.73  
Year to date precipitation 29.05 37.25  
Snow  
Snow 0.00 in - - ()
Month to date snowfall 0.0  
Since 1 July snowfall 0.0  
Since 1 September snowfall 0.0  
Snow Depth 0.00 in    
Sea Level Pressure  
Sea Level Pressure 30.01 in    
Wind  
Wind Speed 6 mph (North)    
Max Wind Speed 13 mph    
Max Gust Speed 16 mph    
Visibility 10 miles    
Events      
T = Trace of Precipitation, MM = Missing Value Source: NWS Daily Summary

Daily Weather History Graph

Daily Weather History Graph

Search for Another Location

Airport:

Trip Planner

Search our weather history database for the weather conditions in past years. The results will help you decide how hot, cold, wet, or windy it might be!

Date:

Astronomy

Sep. 03, 2012 Rise Set
Actual Time 7:08 AM EDT 7:43 PM EDT
Civil Twilight 6:44 AM EDT 8:07 PM EDT
Nautical Twilight 6:17 AM EDT 8:34 PM EDT
Astronomical Twilight 5:49 AM EDT 9:02 PM EDT
Moon 9:29 PM EDT (9/3) 9:49 AM EDT (9/3)
Length of Visible Light 13h 22m
Length of Day
12h 35m
Waning Gibbous, 90% of the Moon is Illuminated
Sep 3
Waning Gibbous
Sep 8
Last Quarter
Sep 15
New
Sep 22
First Quarter
Sep 29
Full

Hourly Weather History & Observations

Time (EDT) Temp. Heat Index Dew Point Humidity Pressure Visibility Wind Dir Wind Speed Gust Speed Precip Events Conditions
12:53 AM 79.0 °F - 73.0 °F 82% 30.01 in 10.0 mi NE 5.8 mph - N/A   Clear
1:53 AM 78.1 °F - 73.0 °F 84% 30.01 in 10.0 mi East 4.6 mph - N/A   Clear
2:53 AM 75.9 °F - 72.0 °F 87% 29.99 in 10.0 mi NE 4.6 mph - N/A   Clear
3:53 AM 75.0 °F - 72.0 °F 90% 29.99 in 10.0 mi ENE 5.8 mph - N/A   Clear
4:53 AM 75.2 °F - 71.6 °F 89% 29.99 in 10.0 mi NE 4.6 mph - N/A   Clear
5:53 AM 73.9 °F - 71.1 °F 91% 30.00 in 10.0 mi NE 4.6 mph - N/A   Clear
6:53 AM 73.9 °F - 71.1 °F 91% 30.01 in 9.0 mi NE 4.6 mph - N/A   Clear
7:53 AM 75.0 °F - 71.1 °F 87% 30.03 in 9.0 mi NE 6.9 mph - N/A   Clear
8:53 AM 78.1 °F - 71.1 °F 79% 30.04 in 10.0 mi ENE 6.9 mph - N/A   Clear
9:53 AM 82.0 °F 86.7 °F 72.0 °F 71% 30.04 in 10.0 mi NE 8.1 mph - N/A   Clear
10:53 AM 84.9 °F 91.4 °F 73.0 °F 67% 30.05 in 10.0 mi East 3.5 mph - N/A   Partly Cloudy
11:53 AM 88.0 °F 94.7 °F 72.0 °F 59% 30.05 in 10.0 mi Variable 3.5 mph - N/A   Mostly Cloudy
12:53 PM 88.0 °F 93.8 °F 71.1 °F 57% 30.04 in 10.0 mi Calm Calm - N/A   Mostly Cloudy
1:53 PM 86.0 °F 93.0 °F 73.0 °F 65% 30.02 in 10.0 mi West 4.6 mph - N/A   Mostly Cloudy
2:53 PM 87.1 °F 95.4 °F 73.9 °F 65% 30.01 in 10.0 mi West 8.1 mph - N/A   Mostly Cloudy
3:53 PM 87.1 °F 95.4 °F 73.9 °F 65% 29.99 in 10.0 mi WNW 12.7 mph - N/A   Scattered Clouds
4:53 PM 87.1 °F 95.4 °F 73.9 °F 65% 29.98 in 10.0 mi WNW 11.5 mph - N/A   Clear
5:53 PM 87.1 °F 95.4 °F 73.9 °F 65% 29.97 in 10.0 mi WNW 9.2 mph - N/A   Clear
6:53 PM 84.9 °F 90.7 °F 72.0 °F 65% 29.97 in 10.0 mi West 9.2 mph - N/A   Clear
7:53 PM 84.0 °F 89.0 °F 71.1 °F 65% 29.98 in 10.0 mi West 8.1 mph - N/A   Clear
8:53 PM 84.0 °F 89.0 °F 71.1 °F 65% 30.00 in 10.0 mi Calm Calm - N/A   Scattered Clouds
9:53 PM 84.2 °F 89.6 °F 71.6 °F 66% 30.01 in 10.0 mi NW 3.5 mph - N/A   Scattered Clouds
10:53 PM 82.0 °F 87.4 °F 73.0 °F 74% 30.01 in 10.0 mi NW 3.5 mph - N/A   Partly Cloudy
11:53 PM 80.1 °F 84.5 °F 73.9 °F 81% 30.01 in 10.0 mi Calm Calm - N/A   Partly Cloudy